Harvey, ND

12:36 PM CDT on July 27, 2017 (GMT -0500)
Harvey

Weather History for K5H4 - November, 2012

Change the Weather History Date:

Wednesday, November 14, 2012

  Actual Average (KRUG) Record (KRUG)
Temperature  
Mean Temperature 22 °F -  
Max Temperature 35 °F 35 °F 65 °F (1953)
Min Temperature 8 °F 19 °F -10 °F (1959)
Degree Days  
Heating Degree Days 44    
Moisture  
Dew Point 21 °F    
Average Humidity 94    
Maximum Humidity 100    
Minimum Humidity 80    
Precipitation  
Precipitation 0.00 in - - ()
Sea Level Pressure  
Sea Level Pressure 30.04 in    
Wind  
Wind Speed 5 mph (SSW)    
Max Wind Speed 12 mph    
Max Gust Speed -    
Visibility 8 miles    
Events Fog    
Averages and records for this station are not official NWS values.
T = Trace of Precipitation, MM = Missing Value Source: NWS Daily Summary

Daily Weather History Graph

Daily Weather History Graph

Search for Another Location

Airport or City:

Trip Planner

Search our weather history database for the weather conditions in past years. The results will help you decide how hot, cold, wet, or windy it might be!

Date:

Astronomy

Nov. 14, 2012 Rise Set
Actual Time 7:44 AM CST 5:03 PM CST
Civil Twilight 7:11 AM CST 5:36 PM CST
Nautical Twilight 6:33 AM CST 6:14 PM CST
Astronomical Twilight 5:57 AM CST 6:50 PM CST
Moon 8:40 AM CST (11/14) 5:48 PM CST (11/14)
Length of Visible Light 10h 25m
Length of Day
9h 18m
New Moon, 1% of the Moon is Illuminated
Nov 14
New Moon
Nov 20
First Quarter
Nov 28
Full
Dec 6
Last Quarter
Dec 13
New

Hourly Weather History & Observations

Time (CST) Temp. Windchill Dew Point Humidity Pressure Visibility Wind Dir Wind Speed Gust Speed Precip Events Conditions
12:15 AM 10.4 °F - 10.4 °F 100% 30.14 in 0.2 mi Calm Calm - N/A Fog Light Freezing Fog
12:35 AM 10.4 °F - 8.6 °F 92% 30.14 in 0.2 mi Calm Calm - N/A Fog Light Freezing Fog
12:55 AM 8.6 °F 2.0 °F 6.8 °F 92% 30.14 in 0.5 mi SSE 3.5 mph - N/A Fog Light Freezing Fog
1:15 AM 8.6 °F 0.1 °F 6.8 °F 92% 30.13 in 0.5 mi SE 4.6 mph - N/A Fog Light Freezing Fog
1:35 AM 10.4 °F 2.2 °F 8.6 °F 92% 30.13 in 2.0 mi SE 4.6 mph - N/A   Clear
1:55 AM 10.4 °F 2.2 °F 8.6 °F 92% 30.12 in 5.0 mi SE 4.6 mph - N/A   Clear
2:15 AM 10.4 °F 2.2 °F 8.6 °F 92% 30.11 in 5.0 mi SE 4.6 mph - N/A   Clear
2:35 AM 10.4 °F 4.0 °F 10.4 °F 100% 30.12 in 7.0 mi SE 3.5 mph - N/A   Clear
2:55 AM 10.4 °F 2.2 °F 10.4 °F 100% 30.12 in 7.0 mi SSE 4.6 mph - N/A   Clear
3:15 AM 12.2 °F 4.3 °F 10.4 °F 92% 30.12 in 7.0 mi SE 4.6 mph - N/A   Clear
3:35 AM 12.2 °F 1.7 °F 10.4 °F 92% 30.11 in 7.0 mi ESE 6.9 mph - N/A   Clear
3:55 AM 14.0 °F 3.9 °F 14.0 °F 100% 30.11 in 7.0 mi ESE 6.9 mph - N/A   Clear
4:15 AM 14.0 °F 3.9 °F 12.2 °F 93% 30.11 in 7.0 mi ESE 6.9 mph - N/A   Clear
4:35 AM 14.0 °F 3.9 °F 12.2 °F 93% 30.10 in 7.0 mi ESE 6.9 mph - N/A   Clear
4:55 AM 14.0 °F 2.9 °F 12.2 °F 93% 30.10 in 7.0 mi ESE 8.1 mph - N/A   Clear
5:15 AM 14.0 °F 5.1 °F 14.0 °F 100% 30.10 in 7.0 mi ESE 5.8 mph - N/A   Clear
5:35 AM 14.0 °F 3.9 °F 14.0 °F 100% 30.09 in 7.0 mi SE 6.9 mph - N/A   Clear
5:55 AM 14.0 °F 8.2 °F 14.0 °F 100% 30.09 in 7.0 mi SE 3.5 mph - N/A   Clear
6:15 AM 12.2 °F 4.3 °F 10.4 °F 92% 30.08 in 7.0 mi SE 4.6 mph - N/A   Clear
6:35 AM 14.0 °F 8.2 °F 14.0 °F 100% 30.07 in 8.0 mi SE 3.5 mph - N/A   Clear
6:55 AM 10.4 °F 2.2 °F 10.4 °F 100% 30.07 in 7.0 mi SE 4.6 mph - N/A   Clear
7:15 AM 14.0 °F 6.5 °F 12.2 °F 93% 30.07 in 7.0 mi SE 4.6 mph - N/A   Clear
7:35 AM 14.0 °F 6.5 °F 12.2 °F 93% 30.07 in 8.0 mi SSE 4.6 mph - N/A   Clear
7:55 AM 14.0 °F 6.5 °F 14.0 °F 100% 30.06 in 9.0 mi SSE 4.6 mph - N/A   Clear
8:15 AM 15.8 °F 10.2 °F 15.8 °F 100% 30.06 in 8.0 mi SSE 3.5 mph - N/A   Clear
8:35 AM 15.8 °F 8.6 °F 15.8 °F 100% 30.06 in 9.0 mi South 4.6 mph - N/A   Clear
8:55 AM 15.8 °F 10.2 °F 14.0 °F 93% 30.06 in 7.0 mi South 3.5 mph - N/A   Clear
9:15 AM 15.8 °F - 15.8 °F 100% 30.06 in 9.0 mi Calm Calm - N/A   Clear
9:35 AM 19.4 °F 14.3 °F 19.4 °F 100% 30.06 in 8.0 mi SW 3.5 mph - N/A   Clear
9:55 AM 21.2 °F 13.6 °F 21.2 °F 100% 30.06 in 9.0 mi SW 5.8 mph - N/A   Clear
10:15 AM 23.0 °F 15.8 °F 23.0 °F 100% 30.06 in 10.0 mi SW 5.8 mph - N/A   Clear
10:35 AM 26.6 °F 22.6 °F 26.6 °F 100% 30.06 in 10.0 mi SSW 3.5 mph - N/A   Clear
10:55 AM 26.6 °F 20.0 °F 26.6 °F 100% 30.06 in 10.0 mi SW 5.8 mph - N/A   Clear
11:15 AM 26.6 °F 21.2 °F 26.6 °F 100% 30.05 in 10.0 mi SW 4.6 mph - N/A   Clear
11:35 AM 28.4 °F 22.2 °F 28.4 °F 100% 30.05 in 10.0 mi SW 5.8 mph - N/A   Clear
11:55 AM 30.2 °F 24.3 °F 30.2 °F 100% 30.03 in 10.0 mi SW 5.8 mph - N/A   Clear
12:15 PM 32.0 °F 25.6 °F 32.0 °F 100% 30.02 in 10.0 mi SSW 6.9 mph - N/A   Clear
12:35 PM 32.0 °F 26.4 °F 32.0 °F 100% 30.01 in 10.0 mi SW 5.8 mph - N/A   Clear
12:55 PM 32.0 °F 27.5 °F 32.0 °F 100% 30.01 in 10.0 mi SW 4.6 mph - N/A   Clear
1:15 PM 32.0 °F 26.4 °F 32.0 °F 100% 30.00 in 10.0 mi SW 5.8 mph - N/A   Clear
1:35 PM 33.8 °F 27.0 °F 32.0 °F 93% 30.00 in 10.0 mi SW 8.1 mph - N/A   Clear
1:55 PM 35.6 °F 30.7 °F 30.2 °F 81% 29.99 in 10.0 mi SW 5.8 mph - N/A   Clear
2:15 PM 35.6 °F 29.2 °F 30.2 °F 81% 29.98 in 10.0 mi SW 8.1 mph - N/A   Clear
2:35 PM 35.6 °F 29.2 °F 30.2 °F 81% 29.98 in 10.0 mi SW 8.1 mph - N/A   Clear
2:55 PM 35.6 °F 30.7 °F 30.2 °F 81% 29.97 in 10.0 mi SSW 5.8 mph - N/A   Clear
3:15 PM 35.6 °F 31.7 °F 30.2 °F 81% 29.97 in 10.0 mi SSW 4.6 mph - N/A   Clear
3:35 PM 35.6 °F 29.9 °F 30.2 °F 81% 29.97 in 10.0 mi SW 6.9 mph - N/A   Clear
3:55 PM 33.8 °F 28.6 °F 30.2 °F 87% 29.97 in 10.0 mi SW 5.8 mph - N/A   Clear
4:15 PM 33.8 °F 27.7 °F 28.4 °F 81% 29.97 in 10.0 mi SW 6.9 mph - N/A   Clear
4:35 PM 32.0 °F 27.5 °F 28.4 °F 87% 29.97 in 10.0 mi SW 4.6 mph - N/A   Clear
4:55 PM 32.0 °F 27.5 °F 28.4 °F 87% 29.97 in 10.0 mi SW 4.6 mph - N/A   Clear
5:15 PM 32.0 °F 26.4 °F 28.4 °F 87% 29.97 in 10.0 mi SW 5.8 mph - N/A   Clear
5:35 PM 28.4 °F 24.6 °F 26.6 °F 93% 29.97 in 10.0 mi WSW 3.5 mph - N/A   Clear
5:55 PM 28.4 °F 21.2 °F 26.6 °F 93% 29.97 in 10.0 mi SW 6.9 mph - N/A   Clear
6:15 PM 26.6 °F 19.1 °F 26.6 °F 100% 29.98 in 10.0 mi SW 6.9 mph - N/A   Clear
6:35 PM 26.6 °F 22.6 °F 26.6 °F 100% 29.98 in 10.0 mi WSW 3.5 mph - N/A   Clear
6:55 PM 28.4 °F 23.3 °F 26.6 °F 93% 29.98 in 10.0 mi WSW 4.6 mph - N/A   Clear
7:15 PM 26.6 °F 18.2 °F 24.8 °F 93% 29.98 in 10.0 mi SW 8.1 mph - N/A   Clear
7:35 PM 26.6 °F 20.0 °F 24.8 °F 93% 29.98 in 10.0 mi SSW 5.8 mph - N/A   Clear
7:55 PM 26.6 °F 21.2 °F 24.8 °F 93% 29.99 in 10.0 mi SW 4.6 mph - N/A   Clear
8:35 PM 26.6 °F 17.5 °F 24.8 °F 93% 29.99 in 10.0 mi SW 9.2 mph - N/A   Clear
8:55 PM 24.8 °F 15.3 °F 24.8 °F 100% 29.99 in 10.0 mi SW 9.2 mph - N/A   Clear
9:15 PM 24.8 °F 16.1 °F 24.8 °F 100% 29.99 in 10.0 mi WSW 8.1 mph - N/A   Clear
9:35 PM 24.8 °F 15.3 °F 23.0 °F 93% 30.00 in 10.0 mi WSW 9.2 mph - N/A   Clear
9:55 PM 28.4 °F 21.2 °F 28.4 °F 100% 30.01 in 10.0 mi WSW 6.9 mph - N/A   Clear
10:15 PM 26.6 °F 18.2 °F 24.8 °F 93% 30.01 in 10.0 mi WSW 8.1 mph - N/A   Clear
10:35 PM 26.6 °F 16.2 °F 26.6 °F 100% 30.02 in 10.0 mi West 11.5 mph - N/A   Clear
10:55 PM 28.4 °F 19.7 °F 26.6 °F 93% 30.02 in 10.0 mi West 9.2 mph - N/A   Clear
11:15 PM 30.2 °F 21.3 °F 26.6 °F 86% 30.03 in 10.0 mi West 10.4 mph - N/A   Clear
11:35 PM 30.2 °F 21.9 °F 26.6 °F 86% 30.04 in 10.0 mi WNW 9.2 mph - N/A   Clear
11:55 PM 32.0 °F 23.6 °F 26.6 °F 80% 30.05 in 10.0 mi WNW 10.4 mph - N/A   Clear